Regional Weather Roundup
Issued by NWS

Home | Current Version | Previous Version | Text Only | Print | Product List | Glossary On
Versions: 1 2 3 4 5 6 7 8 9 10 11 12 13 14 15 16 17 18 19 20 21 22 23 24 25 26 27 28 29 30 31 32 33 34 35 36 37 38 39 40 41 42 43 44 45 46 47 48 49 50
000
ASUS44 KOUN 212210
RWROK

WEATHER ROUNDUP FOR OKLAHOMA
NATIONAL WEATHER SERVICE NORMAN OK
400 PM CST TUE FEB 21 2017

NOTE: "FAIR" INDICATES FEW OR NO CLOUDS BELOW 12,000 FEET WITH NO
      SIGNIFICANT WEATHER AND/OR OBSTRUCTIONS TO VISIBILITY.

OKZ001>007-009>012-014-015-017-212300-
NORTHWEST OKLAHOMA AND THE PANHANDLE

CITY           SKY/WX    TMP DP  RH WIND       PRES   REMARKS
GAGE           SUNNY     79  16   9 SW6       29.95F
GUYMON         SUNNY     80  19  10 NW3       29.96F
ENID/WOODRING  SUNNY     72  37  28 N9        29.94F
$$

OKZ016-021>023-033>039-044-045-212300-
SOUTHWEST OKLAHOMA

CITY           SKY/WX    TMP DP  RH WIND       PRES   REMARKS
LAWTON/REGL    SUNNY     76  36  23 N6        29.96F
LAWTON/FT SILL SUNNY     74  39  27 N9        29.95S
FREDERICK      SUNNY     75  38  26 NW5       29.94F
CLINTON        SUNNY     75  29  18 CALM      29.97F
HOBART         SUNNY     75  35  23 CALM      29.97F
ALTUS AFB      SUNNY     76  27  16 W6        29.95F
$$

OKZ018>020-024>031-212300-
CENTRAL OKLAHOMA

CITY           SKY/WX    TMP DP  RH WIND       PRES   REMARKS
OKLAHOMA CITY  SUNNY     70  34  26 N13       29.95F
OKC/WILEY POST SUNNY     71  35  26 N13       29.95F
OKC/TINKER AFB SUNNY     71  36  27 N12       29.93S
STILLWATER     SUNNY     72  35  25 NW12      29.94F
GUTHRIE        SUNNY     71  36  27 NW9       29.94F
$$

OKZ008-013-054>072-212300-
NORTHEAST OKLAHOMA

CITY           SKY/WX    TMP DP  RH WIND       PRES   REMARKS
TULSA          SUNNY     74  48  39 N18       29.88F
TULSA/JONES    SUNNY     74  47  38 N9        29.89F
PONCA CITY     SUNNY     71  33  24 N10       29.93F
BARTLESVILLE     N/A     75  45  34 MISG      29.91F
MUSKOGEE       SUNNY     71  51  49 N17       29.89S
$$

OKZ032-040>043-046>053-073>077-212300-
SOUTH CENTRAL/SOUTHEAST OKLAHOMA

CITY           SKY/WX    TMP DP  RH WIND       PRES   REMARKS
ARDMORE/DWNTWN SUNNY     72  37  28 N3        29.92S
MCALESTER      SUNNY     73  50  44 NW14      29.89F
$$




USA.gov is the U.S. government's official web portal to all federal, state and local government web resources and services.